Location: Prairie View Elementary School
(39.8322°N, 99.5698°W)
Time: 08:13:03
(UTC+00:00)

Cosmos 1812 - Pass Details

Date: 08 December 2019
Orbit: 516 x 523 km, 82.5° (Epoch: 21 January)

Event Time Altitude Azimuth Distance (km) Brightness Sun altitude
Rises 00:34:09 0° 200° (SSW) 2,636 6.9 -15.1°
Reaches altitude 10° 00:36:20 10° 206° (SSW) 1,753 6.0 -15.5°
Maximum altitude 00:40:02 45° 280° (W) 718 3.8 -16.2°
Drops below altitude 10° 00:43:47 10° 355° (N) 1,769 5.3 -16.8°
Enters shadow 00:45:58 - 1° (N) 2,653 6.1 -17.3°
